Home > Weather > Toruń > Past weeks

Flag for Poland Weather for the Past 2 Weeks in Toruń, Poland

Now
33 °F

Fog.


Feels Like: 29 °F
Forecast: 36 / 43 °F
Wind: 3 mph from Northeast

Location: Chojnice

Current Time: Feb 14, 2016 at 5:59:33 AM

Latest Report: Feb 14, 2016 at 4:00 AM


Visibility: 1 mi

Pressure: 29.35 "Hg

Humidity: 98%

Dew point: 32 °F

Location of ToruńLocation

Historic Weather in Toruń — Graph

°F

Toruń Temperature Yesterday

Maximum temperature yesterday: 33 °F (at 12:00 PM)
Minimum temperature yesterday: 27 °F (at 5:00 AM)
Average temperature yesterday: 31 °F

High & Low Weather Summary for the Past Weeks

 TemperatureHumidityPressure
High47 °F (Feb 10, 4:00 AM)100% (Feb 6, 1:00 PM)30.17 "Hg (Feb 6, 1:00 PM)
Low27 °F (Feb 13, 5:00 AM)56% (Feb 3, 2:00 PM)29.06 "Hg (Feb 10, 4:00 AM)
Average38 °F85%29.65 "Hg
* Reported Jan 30 7:00 AM — Feb 14 3:00 AM, Toruń, Weather by CustomWeather, © 2016

Note: Actual official high and low records may vary slightly from our data, if they occured in-between our weather recording intervals... More about our weather records

Advertising

Toruń Weather History for the Previous 24 Hours

 ConditionsComfort  
Time TempWeatherWind HumidityBarometerVisibility
3:00 AM
Sun, Feb 14
33 °FFog.3 mph98%29.35 "Hg1 mi
2:00 AM33 °FFog.3 mph98%29.35 "Hg1 mi
1:00 AM33 °FFog.2 mph98%29.38 "Hg1 mi
9:00 PM
Sat, Feb 13
33 °FFog.3 mph98%29.41 "Hg1 mi
8:00 PM33 °FFog.2 mph98%29.44 "Hg1 mi
7:00 PM32 °FFog.2 mph98%29.44 "Hg2 mi
6:00 PM32 °FFog.1 mph98%29.44 "Hg1 mi
5:00 PM32 °FFog.1 mph98%29.47 "Hg2 mi
4:00 PM32 °FFog.3 mph98%29.47 "Hg1 mi
3:00 PM32 °FFog.2 mph98%29.47 "Hg0 mi
2:00 PM32 °FFog.3 mph98%29.50 "Hg0 mi
1:00 PM32 °FFog.3 mph98%29.50 "Hg1 mi
12:00 PM33 °FFog.2 mph98%29.50 "Hg1 mi
11:00 AM32 °FFog.1 mph98%29.53 "Hg1 mi
10:00 AM31 °FFog.3 mph98%29.55 "Hg0 mi
9:00 AM30 °FFog.2 mph97%29.56 "Hg0 mi
8:00 AM27 °FFog.1 mph97%29.57 "Hg2 mi
7:00 AM28 °FFog.1 mph97%29.57 "Hg1 mi
6:00 AM28 °FFog.No wind97%29.58 "Hg2 mi
5:00 AM27 °FFog.1 mph96%29.59 "Hg1 mi
Weather by CustomWeather, © 2016

See weather overviewHow to use our weather pages